Flag for Germany Weather past 2 weeks in Bad Oldesloe, Schleswig-Holstein, Germany

Now
73 °F

Sunny.


Feels Like: 77 °F
Forecast: 64 / 77 °F
Wind: 13 mph from Northeast

Location: Luebeck-Blankensee

Current Time: Jul 24, 2014 at 7:48:22 PM

Latest Report: Jul 24, 2014 at 7:20 PM


Visibility: 10 mi

Pressure: 30.04 "Hg

Humidity: 57%

Dew point: 57 °F

Location of Bad OldesloeLocation

Historic Weather in Bad Oldesloe — Graph

°F

Bad Oldesloe temperature yesterday

Maximum temperature yesterday: 79 °F (at 3:50 PM)
Minimum temperature yesterday: 66 °F (at 6:50 AM)
Average temperature yesterday: 74 °F

Past Weeks' High & Low Weather Summary

 TemperatureHumidityPressure
High88 °F (Jul 19, 1:50 PM)100% (Jul 13, 7:50 PM)30.21 "Hg (Jul 13, 7:50 PM)
Low57 °F (Jul 12, 6:20 AM)38% (Jul 19, 2:50 PM)29.65 "Hg (Jul 14, 6:20 AM)
Average72 °F67%29.98 "Hg
* Reported Jul 9 6:20 PM — Jul 24 6:50 PM, Bad Oldesloe, Weather by CustomWeather, © 2014

Note: Actual official high and low records may vary slightly from our data, if they occured in-between our weather recording intervals... More about our weather records

Advertising

Bad Oldesloe weather history for previous 24 hours

 ConditionsComfort  
Time TempWeatherWind HumidityBarometerVisibility
6:50 PM
Jul 24
75 °FSunny.13 mph57%30.04 "Hg10 mi
6:20 PM75 °FSunny.13 mph57%30.04 "Hg10 mi
5:50 PM75 °FSunny.13 mph61%30.04 "Hg10 mi
5:20 PM75 °FSunny.14 mph61%30.04 "Hg10 mi
4:50 PM75 °FPassing clouds.15 mph65%30.04 "HgN/A
4:20 PM75 °FPassing clouds.14 mph65%30.07 "HgN/A
3:50 PM77 °FSunny.13 mph65%30.07 "Hg10 mi
3:20 PM77 °FSunny.14 mph61%30.07 "Hg10 mi
2:50 PM77 °FPassing clouds.14 mph61%30.07 "HgN/A
2:20 PM75 °FSunny.15 mph65%30.07 "Hg10 mi
1:50 PM79 °FSunny.16 mph58%30.07 "Hg10 mi
1:20 PM79 °FSunny.14 mph58%30.07 "Hg10 mi
12:50 PM75 °FSunny.16 mph61%30.07 "Hg10 mi
12:20 PM77 °FPassing clouds.16 mph57%30.07 "HgN/A
11:50 AM77 °FPassing clouds.14 mph57%30.09 "HgN/A
11:20 AM77 °FPassing clouds.13 mph57%30.09 "HgN/A
10:50 AM73 °FSunny.13 mph65%30.09 "Hg10 mi
10:20 AM73 °FSunny.12 mph69%30.09 "Hg10 mi
9:50 AM73 °FSunny.13 mph65%30.09 "Hg10 mi
9:20 AM72 °FPassing clouds.10 mph73%30.09 "HgN/A
8:50 AM70 °FSunny.8 mph78%30.09 "Hg10 mi
8:20 AM70 °FSunny.10 mph83%30.09 "Hg10 mi
7:50 AM68 °FSunny.9 mph83%30.09 "Hg10 mi
7:20 AM66 °FSunny.8 mph88%30.09 "Hg10 mi
6:50 AM64 °FSunny.7 mph94%30.09 "Hg10 mi
9:50 PM
Jul 23
66 °FSunny.8 mph73%30.12 "Hg10 mi
9:20 PM70 °FSunny.10 mph69%30.12 "Hg10 mi
8:50 PM72 °FSunny.10 mph61%30.12 "Hg10 mi
8:20 PM73 °FSunny.15 mph53%30.12 "Hg10 mi
7:50 PM75 °FSunny.15 mph50%30.12 "Hg10 mi
7:20 PM75 °FSunny.16 mph50%30.12 "Hg10 mi
Weather by CustomWeather, © 2014

See weather overviewHow to use our weather pages